This demonstration page uses our WeatherBlox Daily Observations layout. Learn more.

Left ArrowRight Arrow

31.84235, -102.49876

Hourly Observations for May 11, 2015

Temp ( °F °C ) Dew Point ( °F °C ) Humidity (%) Winds ( mph kmh ) Pressure ( in mb ) Visibility ( mi km ) Precip ( " mm )
12:53 am 00:53 Clear 63 17.2 29 -1.7 28 28 ESE 9 15 29.86 1011 10 16 0.00 0.00
1:53 am 01:53 Clear 62 16.7 30 -1.1 30 30 ENE 9 15 29.87 1012 10 16 0.00 0.00
2:53 am 02:53 Clear 60 15.6 41 5 50 50 ENE 10 17 29.87 1012 10 16 0.00 0.00
3:53 am 03:53 Clear 61 16.1 46 7.8 58 58 ENE 12 19 29.87 1012 10 16 0.00 0.00
4:53 am 04:53 Clear 60 15.6 47 8.3 62 62 ENE 12 19 29.88 1012 10 16 0.00 0.00
5:53 am 05:53 Clear 56 13.3 46 7.8 70 70 NE 13 20 29.91 1013 10 16 0.00 0.00
6:53 am 06:53 Clear 55 12.8 45 7.2 69 69 ENE 13 20 29.93 1014 10 16 0.00 0.00
7:53 am 07:53 Partly Cloudy 57 13.9 45 7.2 64 64 ENE 16 26 29.97 1015 10 16 0.00 0.00
8:01 am 08:01 Mostly Cloudy 57 13.9 45 7.2 64 64 ENE 15 24 30.06 1018 10 16 0.00 0.00
8:53 am 08:53 Cloudy with Light Rain 59 15 44 6.7 58 58 ENE 20 31 30.02 1017 10 16 0.00 0.03
9:53 am 09:53 Cloudy 61 16.1 41 5 48 48 ENE 20 31 30.05 1018 10 16 0.00 0.03
10:53 am 10:53 Cloudy 63 17.2 41 5 45 45 ENE 20 31 30.06 1018 10 16 0.00 0.00
11:53 am 11:53 Cloudy 66 18.9 42 5.6 42 42 ENE 16 26 30.06 1018 10 16 0.00 0.00
12:13 pm 12:13 Mostly Cloudy 68 20 42 5.6 39 39 ENE 18 30 30.00 1016 10 16 0.00 0.00
12:53 pm 12:53 Mostly Cloudy 68 20 43 6.1 40 40 E 17 28 30.06 1018 10 16 0.00 0.00
1:06 pm 13:06 Partly Cloudy 69 20.6 43 6.1 39 39 E 15 24 30.00 1016 10 16 0.00 0.00
1:53 pm 13:53 Mostly Cloudy 71 21.7 45 7.2 39 39 ENE 17 28 30.05 1018 10 16 0.00 0.00
2:53 pm 14:53 Mostly Cloudy 73 22.8 45 7.2 37 37 E 15 24 30.03 1017 10 16 0.00 0.00
3:53 pm 15:53 Partly Cloudy 74 23.3 46 7.8 37 37 ENE 13 20 30.02 1017 10 16 0.00 0.00
4:53 pm 16:53 Mostly Sunny 75 23.9 46 7.8 36 36 E 14 22 29.99 1016 10 16 0.00 0.00
5:53 pm 17:53 Sunny 76 24.4 46 7.8 35 35 E 12 19 29.98 1015 10 16 0.00 0.00
6:53 pm 18:53 Sunny 72 22.2 45 7.2 38 38 E 17 28 30.01 1016 10 16 0.00 0.00
7:53 pm 19:53 Sunny 69 20.6 45 7.2 42 42 E 16 26 30.03 1017 10 16 0.00 0.00
8:53 pm 20:53 Clear 67 19.4 45 7.2 45 45 E 17 28 30.05 1018 10 16 0.00 0.00
9:53 pm 21:53 Mostly Clear 65 18.3 45 7.2 49 49 E 15 24 30.07 1018 10 16 0.00 0.00
10:53 pm 22:53 Partly Cloudy 63 17.2 43 6.1 48 48 ENE 18 30 30.09 1019 10 16 0.00 0.00
11:53 pm 23:53 Cloudy 62 16.7 43 6.1 50 50 ENE 18 30 30.11 1020 10 16 0.00 0.00

Powered by AerisWeather